H1 CPF 2 NER 2020 11 6 9 311 01 glonass141 H2 1908801 9141 44850 2020 11 6 0 0 0 2020 11 9 23 45 0 900 1 1 0 0 0 1 H9 10 0 59159 0.00000 0 2252659.003 -25357250.221 1566778.928 10 0 59159 900.00000 0 2094264.849 -25363198.180 -1651238.587 10 0 59159 1800.00000 0 1930000.632 -24963383.162 -4837156.429 10 0 59159 2700.00000 0 1815105.598 -24166610.074 -7929021.274 10 0 59159 3600.00000 0 1802052.926 -22994802.914 -10866683.933 10 0 59159 4500.00000 0 1938084.503 -21482151.075 -13592976.275 10 0 59159 5400.00000 0 2262969.461 -19673757.851 -16054830.796 10 0 59159 6300.00000 0 2807082.807 -17623847.321 -18204320.322 10 0 59159 7200.00000 0 3589886.741 -15393604.729 -19999596.889 10 0 59159 8100.00000 0 4618880.219 -13048740.872 -21405711.124 10 0 59159 9000.00000 0 5889062.427 -10656882.575 -22395295.914 10 0 59159 9900.00000 0 7382933.983 -8284898.617 -22949100.913 10 0 59159 10800.00000 0 9071036.877 -5996272.903 -23056367.574 10 0 59159 11700.00000 0 10913011.436 -3848634.515 -22715037.537 10 0 59159 12600.00000 0 12859126.588 -1891547.526 -21931790.479 10 0 59159 13500.00000 0 14852219.837 -164652.279 -20721910.926 10 0 59159 14400.00000 0 16829965.974 1303765.137 -19108986.764 10 0 59159 15300.00000 0 18727379.648 2497716.473 -17124445.516 10 0 59159 16200.00000 0 20479447.003 3413929.949 -14806937.593 10 0 59159 17100.00000 0 22023776.109 4061728.023 -12201578.692 10 0 59159 18000.00000 0 23303154.999 4462371.156 -9359066.414 10 0 59159 18900.00000 0 24267910.036 4647897.008 -6334688.617 10 0 59159 19800.00000 0 24877965.715 4659505.766 -3187243.172 10 0 59159 20700.00000 0 25104519.603 4545561.319 22109.255 10 0 59159 21600.00000 0 24931262.444 4359294.154 3231036.697 10 0 59159 22500.00000 0 24355092.608 4156304.251 6377247.979 10 0 59159 23400.00000 0 23386295.466 3991970.395 9399701.502 10 0 59159 24300.00000 0 22048180.745 3918876.042 12239787.065 10 0 59159 25200.00000 0 20376193.569 3984360.820 14842457.910 10 0 59159 26100.00000 0 18416536.885 4228301.125 17157291.279 10 0 59159 27000.00000 0 16224363.083 4681213.374 19139457.554 10 0 59159 27900.00000 0 13861610.234 5362759.725 20750580.045 10 0 59159 28800.00000 0 11394572.886 6280719.095 21959469.670 10 0 59159 29700.00000 0 8891307.881 7430466.825 22742721.358 10 0 59159 30600.00000 0 6418982.077 8794985.284 23085161.559 10 0 59159 31500.00000 0 4041271.096 10345405.605 22980138.924 10 0 59159 32400.00000 0 1815915.754 12042058.981 22429653.029 10 0 59159 33300.00000 0 -207463.751 13835994.864 21444318.739 10 0 59159 34200.00000 0 -1989206.334 15670904.070 20043166.651 10 0 59159 35100.00000 0 -3501025.993 17485368.007 18253282.867 10 0 59159 36000.00000 0 -4726947.291 19215341.537 16109294.154 10 0 59159 36900.00000 0 -5663722.077 20796766.851 13652707.395 10 0 59159 37800.00000 0 -6320710.564 22168209.954 10931114.991 10 0 59159 38700.00000 0 -6719232.148 23273409.857 7997280.490 10 0 59159 39600.00000 0 -6891413.384 24063633.631 4908121.359 10 0 59159 40500.00000 0 -6878581.796 24499738.124 1723608.019 10 0 59159 41400.00000 0 -6729273.437 24553850.995 -1494399.833 10 0 59159 42300.00000 0 -6496938.614 24210599.311 -4683356.798 10 0 59159 43200.00000 0 -6237443.275 23467832.886 -7781251.569 10 0 59159 44100.00000 0 -6006472.471 22336810.634 -10727818.608 10 0 59159 45000.00000 0 -5856946.637 20841840.962 -13465717.302 10 0 59159 45900.00000 0 -5836561.170 19019390.284 -15941654.891 10 0 59159 46800.00000 0 -5985554.534 16916696.302 -18107430.562 10 0 59159 47700.00000 0 -6334800.547 14589943.695 -19920879.703 10 0 59159 48600.00000 0 -6904306.656 12102078.364 -21346699.485 10 0 59159 49500.00000 0 -7702182.768 9520351.491 -22357139.453 10 0 59159 50400.00000 0 -8724125.173 6913696.146 -22932543.524 10 0 59159 51300.00000 0 -9953438.194 4350045.909 -23061732.925 10 0 59159 52200.00000 0 -11361593.461 1893707.283 -22742222.759 10 0 59159 53100.00000 0 -12909303.843 -397104.682 -21980268.157 10 0 59159 54000.00000 0 -14548067.379 -2472465.314 -20790739.346 10 0 59159 54900.00000 0 -16222116.646 -4292582.798 -19196828.236 10 0 59159 55800.00000 0 -17870691.817 -5829208.272 -17229592.439 10 0 59159 56700.00000 0 -19430542.014 -7066555.916 -14927345.756 10 0 59159 57600.00000 0 -20838549.822 -8001696.131 -12334907.190 10 0 59159 58500.00000 0 -22034368.570 -8644406.960 -9502723.381 10 0 59159 59400.00000 0 -22962961.424 -9016491.908 -6485881.882 10 0 59159 60300.00000 0 -23576935.464 -9150594.711 -3343034.819 10 0 59159 61200.00000 0 -23838572.556 -9088562.738 -135254.454 10 0 59159 62100.00000 0 -23721471.719 -8879429.733 3075156.632 10 0 59159 63000.00000 0 -23211734.098 -8577104.445 6225877.201 10 0 59159 63900.00000 0 -22308641.054 -8237863.884 9255776.824 10 0 59159 64800.00000 0 -21024797.209 -7917757.894 12106099.582 10 0 59159 65700.00000 0 -19385732.759 -7670035.109 14721599.059 10 0 59159 66600.00000 0 -17428981.990 -7542699.113 17051602.875 10 0 59159 67500.00000 0 -15202676.602 -7576297.777 19050986.736 10 0 59159 68400.00000 0 -12763712.426 -7802038.689 20681039.970 10 0 59159 69300.00000 0 -10175565.588 -8240309.730 21910206.659 10 0 59159 70200.00000 0 -7505848.332 -8899666.770 22714689.090 10 0 59159 71100.00000 0 -4823705.041 -9776331.031 23078902.787 10 0 59159 72000.00000 0 -2197155.482 -10854217.459 22995775.036 10 0 59159 72900.00000 0 309505.876 -12105493.539 22466881.647 10 0 59159 73800.00000 0 2638148.079 -13491646.092 21502419.411 10 0 59159 74700.00000 0 4738979.534 -14965012.571 20121014.534 10 0 59159 75600.00000 0 6572372.469 -16470714.107 18349370.185 10 0 59159 76500.00000 0 8110261.276 -17948910.778 16221759.024 10 0 59159 77400.00000 0 9337057.257 -19337285.860 13779369.531 10 0 59159 78300.00000 0 10250042.327 -20573655.951 11069517.626 10 0 59159 79200.00000 0 10859225.599 -21598598.127 8144737.742 10 0 59159 80100.00000 0 11186669.143 -22357983.994 5061770.168 10 0 59159 81000.00000 0 11265311.415 -22805313.909 1880463.650 10 0 59159 81900.00000 0 11137338.112 -22903752.511 -1337385.781 10 0 59159 82800.00000 0 10852169.355 -22627778.842 -4529237.035 10 0 59159 83700.00000 0 10464148.622 -21964380.323 -7633023.579 10 0 59159 84600.00000 0 10030031.666 -20913738.849 -10588366.143 10 0 59159 85500.00000 0 9606382.352 -19489378.743 -13337754.063 10 0 59160 0.00000 0 9246986.440 -17717769.039 -15827671.486 10 0 59160 900.00000 0 9000394.039 -15637395.273 -18009646.013 10 0 59160 1800.00000 0 8907694.624 -13297339.834 -19841198.008 10 0 59160 2700.00000 0 9000621.537 -10755428.269 -21286672.494 10 0 59160 3600.00000 0 9300064.930 -8076019.879 -22317936.618 10 0 59160 4500.00000 0 9815058.127 -5327534.066 -22914929.088 10 0 59160 5400.00000 0 10542280.220 -2579815.696 -23066051.039 10 0 59160 6300.00000 0 11466096.566 98550.897 -22768390.782 10 0 59160 7200.00000 0 12559135.836 2642867.462 -22027778.286 10 0 59160 8100.00000 0 13783379.562 4994777.974 -20858668.544 10 0 59160 9000.00000 0 15091718.486 7104453.633 -19283856.253 10 0 59160 9900.00000 0 16429910.203 8932416.322 -17334027.590 10 0 59160 10800.00000 0 17738855.631 10450925.615 -15047157.944 10 0 59160 11700.00000 0 18957098.355 11644872.691 -12467767.520 10 0 59160 12600.00000 0 20023441.360 12512145.278 -9646049.617 10 0 59160 13500.00000 0 20879570.765 13063450.107 -6636888.815 10 0 59160 14400.00000 0 21472575.794 13321602.174 -3498788.595 10 0 59160 15300.00000 0 21757258.664 13320312.525 -292729.763 10 0 59160 16200.00000 0 21698137.001 13102527.380 2919017.628 10 0 59160 17100.00000 0 21271054.443 12718390.189 6074105.374 10 0 59160 18000.00000 0 20464331.723 12222913.885 9111317.210 10 0 59160 18900.00000 0 19279409.965 11673462.561 11971754.278 10 0 59160 19800.00000 0 17730959.251 11127149.449 14599973.035 10 0 59160 20700.00000 0 15846448.030 10638261.231 16945053.709 10 0 59160 21600.00000 0 13665191.282 10255817.215 18961579.251 10 0 59160 22500.00000 0 11236916.948 10021365.863 20610506.589 10 0 59160 23400.00000 0 8619909.949 9967110.967 21859914.206 10 0 59160 24300.00000 0 5878810.291 10114445.731 22685612.620 10 0 59160 25200.00000 0 3082155.741 10472955.993 23071606.903 10 0 59160 26100.00000 0 299769.906 11039934.198 23010403.015 10 0 59160 27000.00000 0 -2399897.359 11800424.658 22503152.571 10 0 59160 27900.00000 0 -4952368.474 12727798.648 21559633.360 10 0 59160 28800.00000 0 -7299569.159 13784835.987 20198065.787 10 0 59160 29700.00000 0 -9391992.530 14925268.809 18444768.192 10 0 59160 30600.00000 0 -11190507.510 16095723.927 16333656.828 10 0 59160 31500.00000 0 -12667737.203 17237983.490 13905599.133 10 0 59160 32400.00000 0 -13808950.473 18291469.994 11207631.675 10 0 59160 33300.00000 0 -14612429.981 19195852.020 8292056.765 10 0 59160 34200.00000 0 -15089301.425 19893661.414 5215434.458 10 0 59160 35100.00000 0 -15262831.377 20332811.673 2037488.786 10 0 59160 36000.00000 0 -15167223.297 20468910.949 -1180050.849 10 0 59160 36900.00000 0 -14845962.580 20267271.188 -4374650.519 10 0 59160 37800.00000 0 -14349780.696 19704527.499 -7484191.164 10 0 59160 38700.00000 0 -13734324.808 18769797.948 -10448182.284 10 0 59160 39600.00000 0 -13057631.910 17465333.355 -13208945.431 10 0 59160 40500.00000 0 -12377514.970 15806628.186 -15712743.737 10 0 59160 41400.00000 0 -11748972.403 13821986.363 -17910834.713 10 0 59160 42300.00000 0 -11221731.213 11551559.052 -19760425.121 10 0 59160 43200.00000 0 -10838028.423 9045893.719 -21225508.890 10 0 59160 44100.00000 0 -10630725.212 6364054.402 -22277571.472 10 0 59160 45000.00000 0 -10621833.927 3571391.298 -22896146.782 10 0 59160 45900.00000 0 -10821520.563 737052.335 -23069215.958 10 0 59160 46800.00000 0 -11227625.009 -2068659.791 -22793440.304 10 0 59160 47700.00000 0 -11825719.406 -4776975.208 -22074224.083 10 0 59160 48600.00000 0 -12589702.119 -7323277.493 -20925606.154 10 0 59160 49500.00000 0 -13482902.179 -9649548.682 -19369982.769 10 0 59160 50400.00000 0 -14459647.410 -11706537.331 -17437667.089 10 0 59160 51300.00000 0 -15467229.858 -13455560.117 -15166294.214 10 0 59160 52200.00000 0 -16448185.332 -14869862.906 -12600083.427 10 0 59160 53100.00000 0 -17342790.534 -15935485.616 -9788972.352 10 0 59160 54000.00000 0 -18091672.082 -16651596.275 -6787640.136 10 0 59160 54900.00000 0 -18638416.963 -17030281.919 -3654439.044 10 0 59160 55800.00000 0 -18932073.949 -17095806.870 -450255.794 10 0 59160 56700.00000 0 -18929440.200 -16883371.319 2762674.791 10 0 59160 57600.00000 0 -18597036.423 -16437424.131 5921980.275 10 0 59160 58500.00000 0 -17912687.267 -15809602.374 8966361.311 10 0 59160 59400.00000 0 -16866640.358 -15056385.550 11836778.840 10 0 59160 60300.00000 0 -15462176.869 -14236564.216 14477594.825 10 0 59160 61200.00000 0 -13715687.954 -13408630.046 16837644.592 10 0 59160 62100.00000 0 -11656213.643 -12628197.319 18871220.569 10 0 59160 63000.00000 0 -9324463.088 -11945564.026 20538949.188 10 0 59160 63900.00000 0 -6771356.558 -11403514.618 21808544.844 10 0 59160 64800.00000 0 -4056149.052 -11035456.024 22655427.358 10 0 59160 65700.00000 0 -1244212.474 -10863964.468 23063191.959 10 0 59160 66600.00000 0 1595432.746 -10899803.483 23023923.442 10 0 59160 67500.00000 0 4392735.667 -11141453.925 22538348.955 10 0 59160 68400.00000 0 7079275.498 -11575175.625 21615826.621 10 0 59160 69300.00000 0 9590856.024 -12175598.372 20274170.002 10 0 59160 70200.00000 0 11869927.605 -12906817.988 18539311.230 10 0 59160 71100.00000 0 13867737.463 -13723952.323 16444808.446 10 0 59160 72000.00000 0 15546119.685 -14575092.751 14031206.012 10 0 59160 72900.00000 0 16878851.164 -15403569.998 11345258.784 10 0 59160 73800.00000 0 17852517.301 -16150439.784 8439034.288 10 0 59160 74700.00000 0 18466851.414 -16757083.973 5368909.399 10 0 59160 75600.00000 0 18734533.730 -17167817.709 2194480.291 10 0 59160 76500.00000 0 18680458.359 -17332392.199 -1022593.537 10 0 59160 77400.00000 0 18340499.067 -17208286.722 -4219788.595 10 0 59160 78300.00000 0 17759825.932 -16762691.973 -7334936.491 10 0 59160 79200.00000 0 16990844.105 -15974099.569 -10307438.494 10 0 59160 80100.00000 0 16090842.059 -14833429.021 -13079451.123 10 0 59160 81000.00000 0 15119449.168 -13344642.991 -15597018.888 10 0 59160 81900.00000 0 14136010.628 -11524823.217 -17811131.407 10 0 59160 82800.00000 0 13196991.288 -9403702.445 -19678683.556 10 0 59160 83700.00000 0 12353518.610 -7022670.676 -21163319.518 10 0 59160 84600.00000 0 11649169.044 -4433296.250 -22236144.018 10 0 59160 85500.00000 0 11118091.567 -1695422.878 -22876286.730 10 0 59161 0.00000 0 10783547.714 1125078.534 -23071308.941 10 0 59161 900.00000 0 10656929.921 3958810.117 -22817444.678 10 0 59161 1800.00000 0 10737298.509 6735495.108 -22119671.883 10 0 59161 2700.00000 0 11011458.077 9386663.948 -20991612.306 10 0 59161 3600.00000 0 11454567.893 11848267.184 -19455262.468 10 0 59161 4500.00000 0 12031261.248 14063106.257 -17540560.939 10 0 59161 5400.00000 0 12697225.399 15982981.818 -15284800.666 10 0 59161 6300.00000 0 13401175.001 17570470.663 -12731897.864 10 0 59161 7200.00000 0 14087135.076 18800258.026 -9931532.059 10 0 59161 8100.00000 0 14696936.480 19659970.792 -6938174.278 10 0 59161 9000.00000 0 15172817.943 20150478.148 -3810022.657 10 0 59161 9900.00000 0 15460024.225 20285648.584 -607866.739 10 0 59161 10800.00000 0 15509290.233 20091575.105 2606097.033 10 0 59161 11700.00000 0 15279105.865 19605302.821 5769475.143 10 0 59161 12600.00000 0 14737665.788 18873113.870 8820888.192 10 0 59161 13500.00000 0 13864421.757 17948443.159 11701159.769 10 0 59161 14400.00000 0 12651171.980 16889513.513 14354459.952 10 0 59161 15300.00000 0 11102641.575 15756790.376 16729381.473 10 0 59161 16200.00000 0 9236529.505 14610363.221 18779928.234 10 0 59161 17100.00000 0 7083019.588 13507363.560 20466397.850 10 0 59161 18000.00000 0 4683775.442 12499527.430 21756141.951 10 0 59161 18900.00000 0 2090460.426 11631003.851 22624190.619 10 0 59161 19800.00000 0 -637156.971 10936500.241 23053729.801 10 0 59161 20700.00000 0 -3433434.765 10439841.622 23036423.245 10 0 59161 21600.00000 0 -6229335.046 10153003.175 22572573.285 10 0 59161 22500.00000 0 -8955046.287 10075656.122 21671117.524 10 0 59161 23400.00000 0 -11542643.142 10195245.741 20349461.319 10 0 59161 24300.00000 0 -13928674.882 10487598.268 18633148.736 10 0 59161 25200.00000 0 -16056576.296 10918031.623 16555377.483 10 0 59161 26100.00000 0 -17878801.766 11442923.836 14156366.162 10 0 59161 27000.00000 0 -19358594.399 12011673.927 11482584.951 10 0 59161 27900.00000 0 -20471316.847 12568973.291 8585863.459 10 0 59161 28800.00000 0 -21205288.235 13057292.329 5522392.199 10 0 59161 29700.00000 0 -21562092.144 13419477.574 2351636.326 10 0 59161 30600.00000 0 -21556342.505 13601349.445 -864817.627 10 0 59161 31500.00000 0 -21214917.015 13554190.259 -4064459.540 10 0 59161 32400.00000 0 -20575690.204 13237016.361 -7185074.446 10 0 59161 33300.00000 0 -19685819.519 12618537.013 -10165957.959 10 0 59161 34200.00000 0 -18599656.823 11678715.715 -12949103.903 10 0 59161 35100.00000 0 -17376373.768 10409866.362 -15480340.253 10 0 59161 36000.00000 0 -16077401.631 8817236.212 -17710390.497 10 0 59161 36900.00000 0 -14763794.173 6919049.516 -19595839.038 10 0 59161 37800.00000 0 -13493625.221 4746008.386 -21099981.355 10 0 59161 38700.00000 0 -12319531.086 2340270.489 -22193542.104 10 0 59161 39600.00000 0 -11286501.691 -246054.639 -22855246.992 10 0 59161 40500.00000 0 -10430013.470 -2952828.693 -23072237.360 10 0 59161 41400.00000 0 -9774582.524 -5714147.479 -22840319.554 10 0 59161 42300.00000 0 -9332798.592 -8460849.575 -22164044.398 10 0 59161 43200.00000 0 -9104879.921 -11123166.634 -21056615.481 10 0 59161 44100.00000 0 -9078767.049 -13633405.216 -19539628.213 10 0 59161 45000.00000 0 -9230750.712 -15928548.660 -17642644.945 10 0 59161 45900.00000 0 -9526606.464 -17952670.989 -15402614.606 10 0 59161 46800.00000 0 -9923187.200 -19659062.678 -12863148.306 10 0 59161 47700.00000 0 -10370405.430 -21011980.179 -10073665.309 10 0 59161 48600.00000 0 -10813520.660 -21987946.965 -7088426.270 10 0 59161 49500.00000 0 -11195634.410 -22576552.773 -3965472.910 10 0 59161 50400.00000 0 -11460286.650 -22780718.733 -765495.265 10 0 59161 51300.00000 0 -11554043.290 -22616418.695 2449350.962 10 0 59161 52200.00000 0 -11428964.837 -22111869.876 5616653.572 10 0 59161 53100.00000 0 -11044851.587 -21306228.215 8674955.553 10 0 59161 54000.00000 0 -10371170.304 -20247844.539 11564945.590 10 0 59161 54900.00000 0 -9388580.935 -18992155.815 14230604.305 10 0 59161 55800.00000 0 -8089998.920 -17599300.808 16620284.182 10 0 59161 56700.00000 0 -6481148.198 -16131560.578 18687702.799 10 0 59161 57600.00000 0 -4580581.281 -14650731.105 20392830.912 10 0 59161 58500.00000 0 -2419165.020 -13215537.772 21702659.065 10 0 59161 59400.00000 0 -39052.697 -11879199.233 22591828.922 10 0 59161 60300.00000 0 2507815.828 -10687241.603 23043118.101 10 0 59161 61200.00000 0 5161624.752 -9675653.388 23047769.869 10 0 59161 62100.00000 0 7856925.847 -8869457.196 22605661.917 10 0 59161 63000.00000 0 10525123.386 -8281757.037 21725311.138 10 0 59161 63900.00000 0 13097098.835 -7913300.417 20423714.129 10 0 59161 64800.00000 0 15505867.943 -7752573.107 18726025.984 10 0 59161 65700.00000 0 17689161.217 -7776422.529 16665082.729 10 0 59161 66600.00000 0 19591821.440 -7951183.755 14280775.597 10 0 59161 67500.00000 0 21167919.187 -8234261.131 11619288.111 10 0 59161 68400.00000 0 22382498.486 -8576099.368 8732209.615 10 0 59161 69300.00000 0 23212879.697 -8922461.375 5675541.544 10 0 59161 70200.00000 0 23649464.901 -9216916.893 2508615.013 10 0 59161 71100.00000 0 23696011.679 -9403436.664 -707059.670 10 0 59161 72000.00000 0 23369363.310 -9428982.023 -3908989.148 10 0 59161 72900.00000 0 22698646.360 -9245979.571 -7034915.277 10 0 59161 73800.00000 0 21723969.129 -8814575.046 -10024031.302 10 0 59161 74700.00000 0 20494675.662 -8104569.696 -12818171.419 10 0 59161 75600.00000 0 19067228.967 -7096955.644 -15362949.832 10 0 59161 76500.00000 0 17502812.818 -5784983.681 -17608826.332 10 0 59161 77400.00000 0 15864753.571 -4174716.764 -19512076.914 10 0 59161 78300.00000 0 14215870.904 -2285044.241 -21035650.054 10 0 59161 79200.00000 0 12615869.328 -147154.700 -22149891.659 10 0 59161 80100.00000 0 11118880.446 2196511.702 -22833124.408 10 0 59161 81000.00000 0 9771259.305 4693788.607 -23072070.253 10 0 59161 81900.00000 0 8609727.243 7284723.613 -22862108.004 10 0 59161 82800.00000 0 7659938.859 9903852.721 -22207361.157 10 0 59161 83700.00000 0 6935532.603 12482714.618 -21120614.516 10 0 59161 84600.00000 0 6437703.965 14952500.311 -19623061.404 10 0 59161 85500.00000 0 6155318.158 17246727.729 -17743886.602 10 0 59162 0.00000 0 6065556.311 19303830.093 -15519693.379 10 0 59162 900.00000 0 6135066.710 21069550.149 -12993785.583 10 0 59162 1800.00000 0 6321571.130 22499041.179 -10215319.886 10 0 59162 2700.00000 0 6575857.470 23558586.373 -7238343.867 10 0 59162 3600.00000 0 6844073.088 24226866.851 -4120739.846 10 0 59162 4500.00000 0 7070221.087 24495724.885 -923095.175 10 0 59162 5400.00000 0 7198753.037 24370392.033 2292478.501 10 0 59162 6300.00000 0 7177147.840 23869173.592 5463553.638 10 0 59162 7200.00000 0 6958367.179 23022603.856 8528598.876 10 0 59162 8100.00000 0 6503083.477 21872108.814 11428171.100 10 0 59162 9000.00000 0 5781586.031 20468233.378 14106064.355 10 0 59162 9900.00000 0 4775284.848 18868508.300 16510393.468 10 0 59162 10800.00000 0 3477748.631 17135046.608 18594591.963 10 0 59162 11700.00000 0 1895233.012 15331970.261 20318305.683 10 0 59162 12600.00000 0 46676.432 13522774.421 21648165.663 10 0 59162 13500.00000 0 -2036836.910 11767738.839 22558426.364 10 0 59162 14400.00000 0 -4313125.593 10121493.481 23031457.871 10 0 59162 15300.00000 0 -6730428.491 8630838.919 23058083.329 10 0 59162 16200.00000 0 -9229329.566 7332911.189 22637755.673 10 0 59162 17100.00000 0 -11745011.533 6253766.527 21778570.454 10 0 59162 18000.00000 0 -14209746.311 5407444.054 20497114.355 10 0 59162 18900.00000 0 -16555520.357 4795544.793 18818151.818 10 0 59162 19800.00000 0 -18716687.171 4407344.078 16774155.005 10 0 59162 20700.00000 0 -20632537.654 4220432.440 14404685.157 10 0 59162 21600.00000 0 -22249682.051 4201858.042 11755636.168 10 0 59162 22500.00000 0 -23524144.512 4309722.742 8878353.893 10 0 59162 23400.00000 0 -24423082.739 4495164.808 5828647.332 10 0 59162 24300.00000 0 -24926060.454 4704644.682 2665710.166 10 0 59162 25200.00000 0 -25025818.848 4882437.223 -549026.876 10 0 59162 26100.00000 0 -24728513.913 4973224.662 -3753090.428 10 0 59162 27000.00000 0 -24053409.046 4924679.934 -6884182.247 10 0 59162 27900.00000 0 -23032035.225 4689930.022 -9881396.091 10 0 59162 28800.00000 0 -21706853.687 4229793.824 -12686409.195 10 0 59162 29700.00000 0 -20129477.160 3514698.391 -15244624.381 10 0 59162 30600.00000 0 -18358524.450 2526190.874 -17506239.805 10 0 59162 31500.00000 0 -16457198.821 1257980.736 -19427224.727 10 0 59162 32400.00000 0 -14490692.204 -283533.404 -20970181.837 10 0 59162 33300.00000 0 -12523524.533 -2079276.007 -22105079.027 10 0 59162 34200.00000 0 -10616930.150 -4098046.752 -22809836.190 10 0 59162 35100.00000 0 -8826400.975 -6297590.609 -23070755.648 10 0 59162 36000.00000 0 -7199489.254 -8626141.979 -22882787.985 10 0 59162 36900.00000 0 -5773961.657 -11024378.984 -22249628.285 10 0 59162 37800.00000 0 -4576381.382 -13427706.750 -21183641.136 10 0 59162 38700.00000 0 -3621176.738 -15768774.697 -19705616.051 10 0 59162 39600.00000 0 -2910234.173 -17980122.841 -17844358.300 10 0 59162 40500.00000 0 -2433031.385 -19996846.788 -15636123.258 10 0 59162 41400.00000 0 -2167303.452 -21759170.227 -13123905.486 10 0 59162 42300.00000 0 -2080212.378 -23214817.470 -10356596.649 10 0 59162 43200.00000 0 -2129969.212 -24321087.111 -7388028.938 10 0 59162 44100.00000 0 -2267838.808 -25046540.390 -4275922.968 10 0 59162 45000.00000 0 -2440441.264 -25372234.011 -1080761.127 10 0 59162 45900.00000 0 -2592251.592 -25292446.521 2135391.234 10 0 59162 46800.00000 0 -2668190.997 -24814868.606 5310093.433 10 0 59162 47700.00000 0 -2616199.499 -23960250.266 8381741.949 10 0 59162 48600.00000 0 -2389680.661 -22761520.651 11290764.026 10 0 59162 49500.00000 0 -1949714.846 -21262418.332 13980769.228 10 0 59162 50400.00000 0 -1266947.448 -19515690.136 16399636.748 10 0 59162 51300.00000 0 -323072.421 -17580934.417 18500517.947 10 0 59162 52200.00000 0 888151.518 -15522179.046 20242735.446 10 0 59162 53100.00000 0 2360394.924 -13405295.158 21592562.232 10 0 59162 54000.00000 0 4074783.666 -11295353.927 22523866.733 10 0 59162 54900.00000 0 6000456.656 -9254035.679 23018612.379 10 0 59162 55800.00000 0 8095633.017 -7337198.162 23067202.757 10 0 59162 56700.00000 0 10309145.499 -5592703.933 22668666.304 10 0 59162 57600.00000 0 12582377.817 -4058596.001 21830677.192 10 0 59162 58500.00000 0 14851526.807 -2761696.550 20569411.864 10 0 59162 59400.00000 0 17050096.848 -1716686.071 18909243.511 10 0 59162 60300.00000 0 19111524.215 -925700.493 16882279.547 10 0 59162 61200.00000 0 20971823.143 -378462.655 14527750.032 10 0 59162 62100.00000 0 22572144.169 -52942.247 11891257.729 10 0 59162 63000.00000 0 23861138.398 83483.633 9023903.148 10 0 59162 63900.00000 0 24797028.849 72418.067 5981300.655 10 0 59162 64800.00000 0 25349301.839 -37551.920 2822503.943 10 0 59162 65700.00000 0 25499946.867 -193151.111 -391138.667 10 0 59162 66600.00000 0 25244192.080 -338914.030 -3597176.859 10 0 59162 67500.00000 0 24590703.506 -419778.852 -6733275.471 10 0 59162 68400.00000 0 23561238.782 -383666.669 -9738431.947 10 0 59162 69300.00000 0 22189769.161 -183935.857 -12554169.619 10 0 59162 70200.00000 0 20521106.155 218393.646 -15125682.794 10 0 59162 71100.00000 0 18609090.187 852741.714 -17402910.599 10 0 59162 72000.00000 0 16514417.242 1737476.814 -19341517.876 10 0 59162 72900.00000 0 14302194.805 2878896.687 -20903763.559 10 0 59162 73800.00000 0 12039329.686 4270725.414 -22059239.263 10 0 59162 74700.00000 0 9791857.445 5894149.310 -22785463.524 10 0 59162 75600.00000 0 7622325.245 7718391.370 -23068320.146 10 0 59162 76500.00000 0 5587337.552 9701801.122 -22902332.255 10 0 59162 77400.00000 0 3735367.094 11793414.942 -22290766.908 10 0 59162 78300.00000 0 2104921.990 13934922.053 -21245568.460 10 0 59162 79200.00000 0 723144.838 16062954.330 -19787122.174 10 0 59162 80100.00000 0 -395098.692 18111604.249 -17943852.918 10 0 59162 81000.00000 0 -1247605.014 20015065.782 -15751666.916 10 0 59162 81900.00000 0 -1844676.990 21710287.745 -13253247.591 10 0 59162 82800.00000 0 -2208435.687 23139528.489 -10497219.511 10 0 59162 83700.00000 0 -2371630.315 24252704.980 -7537196.961 10 0 59162 84600.00000 0 -2375998.160 25009437.968 -4430736.010 10 0 59162 85500.00000 0 -2270245.312 25380707.672 -1238210.995 99